Weather History for KJAX - May, 2014

Change the Weather History Date:

Monday, May 12, 2014

  Actual Average Record
Temperature  
Mean Temperature 74 °F 73 °F  
Max Temperature 84 °F 85 °F 97 °F (1967)
Min Temperature 64 °F 62 °F 47 °F (1981)
Degree Days  
Heating Degree Days 0 0  
Month to date heating degree days 5 3  
Since 1 July heating degree days 1308 1347  
Cooling Degree Days 9 8  
Month to date cooling degree days 103 85  
Year to date cooling degree days 302 281  
Growing Degree Days 24 (Base 50)    
Moisture  
Dew Point 67 °F    
Average Humidity 78    
Maximum Humidity 100    
Minimum Humidity 55    
Precipitation  
Precipitation 0.00 in 0.07 in 1.90 in (1974)
Month to date precipitation 3.86 0.80  
Year to date precipitation 24.21 13.88  
Snow  
Snow 0.00 in 0.00 in 0.00 in (2002)
Month to date snowfall 0.0 0.0  
Since 1 July snowfall 0.0 T  
Snow Depth 0.00 in    
Sea Level Pressure  
Sea Level Pressure 30.16 in    
Wind  
Wind Speed 6 mph (ESE)    
Max Wind Speed 17 mph    
Max Gust Speed 21 mph    
Visibility 9 miles    
Events      
T = Trace of Precipitation, MM = Missing Value Source: NWS Daily Summary

Daily Weather History Graph

Daily Weather History Graph

Search for Another Location

Airport or City:

Trip Planner

Search our weather history database for the weather conditions in past years. The results will help you decide how hot, cold, wet, or windy it might be!

Date:

Astronomy

May. 12, 2014 Rise Set
Actual Time 6:34 AM EDT 8:12 PM EDT
Civil Twilight 6:08 AM EDT 8:38 PM EDT
Nautical Twilight 5:36 AM EDT 9:09 PM EDT
Astronomical Twilight 5:03 AM EDT 9:42 PM EDT
Moon 6:17 PM EDT (5/12) 5:02 AM EDT (5/12)
Length of Visible Light 14h 30m
Length of Day
13h 37m
Waxing Gibbous, 95% of the Moon is Illuminated
May 12
Waxing Gibbous
May 14
Full
May 21
Last Quarter
May 28
New
Jun 5
First Quarter

Hourly Weather History & Observations

Time (EDT) Temp. Heat Index Dew Point Humidity Pressure Visibility Wind Dir Wind Speed Gust Speed Precip Events Conditions
12:56 AM 66.9 °F - 66.9 °F 100% 30.14 in 7.0 mi Calm Calm - N/A   Partly Cloudy
1:56 AM 66.0 °F - 66.0 °F 100% 30.14 in 7.0 mi Calm Calm - N/A   Partly Cloudy
2:56 AM 64.9 °F - 64.9 °F 100% 30.13 in 6.0 mi NE 4.6 mph - N/A   Partly Cloudy
3:56 AM 66.0 °F - 66.0 °F 100% 30.12 in 6.0 mi South 3.5 mph - N/A   Partly Cloudy
4:56 AM 64.9 °F - 64.9 °F 100% 30.12 in 8.0 mi Calm Calm - N/A   Clear
5:56 AM 64.9 °F - 64.9 °F 100% 30.14 in 7.0 mi Calm Calm - N/A   Partly Cloudy
6:56 AM 64.9 °F - 64.9 °F 100% 30.16 in 4.0 mi Calm Calm - N/A   Partly Cloudy
7:56 AM 70.0 °F - 69.1 °F 97% 30.17 in 8.0 mi SE 3.5 mph - N/A   Partly Cloudy
8:56 AM 75.9 °F - 72.0 °F 87% 30.18 in 10.0 mi SSE 4.6 mph - N/A   Scattered Clouds
9:56 AM 78.8 °F - 69.8 °F 74% 30.19 in 10.0 mi SSE 9.2 mph - N/A   Scattered Clouds
10:56 AM 80.1 °F 82.7 °F 68.0 °F 67% 30.20 in 10.0 mi SSE 6.9 mph - N/A   Mostly Cloudy
11:56 AM 82.0 °F 84.5 °F 66.9 °F 60% 30.20 in 10.0 mi Variable 5.8 mph - N/A   Mostly Cloudy
12:56 PM 84.0 °F 87.0 °F 68.0 °F 58% 30.19 in 10.0 mi Variable 6.9 mph - N/A   Mostly Cloudy
1:56 PM 84.0 °F 87.8 °F 69.1 °F 61% 30.17 in 10.0 mi East 11.5 mph 18.4 mph N/A   Mostly Cloudy
2:56 PM 82.9 °F 85.8 °F 68.0 °F 60% 30.17 in 10.0 mi ESE 15.0 mph 18.4 mph N/A   Mostly Cloudy
3:56 PM 82.9 °F 85.0 °F 66.0 °F 56% 30.16 in 10.0 mi East 11.5 mph - N/A   Mostly Cloudy
4:56 PM 82.9 °F 84.6 °F 64.9 °F 54% 30.15 in 10.0 mi East 12.7 mph - N/A   Mostly Cloudy
5:56 PM 82.0 °F 83.8 °F 64.9 °F 56% 30.14 in 10.0 mi East 9.2 mph - N/A   Mostly Cloudy
6:56 PM 79.0 °F - 63.0 °F 58% 30.14 in 10.0 mi East 9.2 mph - N/A   Mostly Cloudy
7:56 PM 75.9 °F - 68.0 °F 76% 30.14 in 10.0 mi East 9.2 mph - N/A   Mostly Cloudy
8:56 PM 73.9 °F - 68.0 °F 82% 30.14 in 10.0 mi East 5.8 mph - N/A   Mostly Cloudy
9:56 PM 73.0 °F - 69.1 °F 87% 30.14 in 10.0 mi ESE 6.9 mph - N/A   Scattered Clouds
10:56 PM 71.1 °F - 69.1 °F 93% 30.15 in 10.0 mi East 4.6 mph - N/A   Scattered Clouds
11:56 PM 71.1 °F - 70.0 °F 96% 30.14 in 10.0 mi East 6.9 mph - N/A   Partly Cloudy